Wind_Speed
6 6 7 7 7 6 5 6 6 7 8 9 9 9 9 10 10 11 12 13 13 14 14 14 15 15 16 16 17 18 19 20 21 21 22 22 22 22
7 7 8 8 8 7 7 8 8 9 9 9 9 10 10 10 11 12 12 13 13 14 15 15 16 16 17 18 19 19 20 21 22 22 22 22 22 22
8 8 8 8 8 8 8 9 9 10 10 10 11 11 11 12 13 13 14 14 15 15 16 17 17 18 18 19 20 21 21 22 22 23 22 22 22 22
9 9 9 9 9 9 10 11 11 11 11 12 12 13 13 14 14 15 15 15 16 17 17 17 18 19 20 20 21 22 23 23 23 23 23 23 23 23
10 10 10 10 11 11 11 12 12 13 13 13 14 14 15 16 16 16 17 17 18 19 19 19 19 20 21 22 22 23 24 24 25 25 25 24 24 24
12 12 12 12 12 12 13 13 13 14 14 15 15 16 16 17 18 19 19 19 19 20 21 21 22 23 24 24 24 24 25 25 25 26 25 25 25 25
13 13 14 14 14 14 15 15 15 15 16 16 17 18 18 19 20 21 21 21 21 22 22 23 23 24 25 25 26 26 26 26 26 27 27 26 26 26
15 15 15 15 16 15 15 16 16 17 17 18 19 19 20 21 21 21 22 22 23 23 24 24 25 26 26 27 27 27 27 27 27 27 27 27 26 26
16 16 16 17 16 16 16 17 17 18 18 19 20 21 21 22 22 23 23 24 24 24 25 25 25 26 27 28 28 28 28 27 27 28 28 28 27 26
18 18 18 18 19 18 19 18 18 18 19 20 21 23 23 24 24 23 24 24 24 24 25 25 26 26 27 28 28 29 28 28 28 29 28 27 27 27
19 20 20 20 20 20 20 20 19 20 21 21 22 23 24 24 24 24 24 25 25 26 26 26 26 26 27 28 28 28 28 28 29 29 28 27 26 27
19 20 21 21 21 21 21 20 20 20 21 21 22 23 24 24 24 25 25 26 26 26 26 26 27 27 28 29 29 28 28 28 28 28 27 27 27 27
20 21 21 21 21 21 22 21 21 21 22 23 23 24 25 25 25 26 26 27 27 27 26 26 27 28 28 28 29 29 28 28 27 27 28 27 27 27
22 22 21 22 21 22 22 22 23 23 24 25 25 25 26 27 27 27 28 28 27 27 28 28 28 28 29 29 29 29 29 28 28 28 28 28 28 27
23 22 22 23 23 24 24 24 25 25 26 26 27 27 28 28 28 28 28 28 28 29 29 29 28 29 29 29 29 29 29 29 29 29 29 29 29 27
25 24 24 25 26 26 26 27 27 27 27 27 28 29 29 30 29 29 29 29 29 30 31 30 29 29 29 29 29 29 29 29 29 29 29 29 28 27
27 27 27 27 28 28 28 29 30 30 30 30 30 30 30 30 30 30 31 31 31 31 31 30 29 30 30 30 29 29 29 29 29 30 29 29 29 28
29 29 29 30 31 30 30 31 31 32 32 32 31 31 31 31 31 31 31 31 30 29 30 30 30 29 29 29 29 28 28 29 29 29 29 29 29 29
31 31 31 32 32 32 32 32 32 33 33 33 32 33 34 33 31 30 30 30 30 29 30 29 29 29 29 29 29 29 29 29 29 29 29 29 29 28
33 33 33 34 34 34 34 34 34 34 34 34 34 34 34 32 31 31 31 31 30 30 29 30 30 30 29 29 30 29 29 29 30 29 29 29 28 28
34 34 34 35 35 36 35 35 35 35 35 35 35 35 34 33 32 32 32 31 31 30 31 31 31 31 31 30 30 30 30 30 30 29 29 29 29 28
35 35 35 35 36 36 36 35 35 35 35 36 36 35 34 33 33 32 32 31 32 32 32 32 32 31 32 31 31 31 31 31 30 29 29 29 28 27
35 35 35 35 36 35 35 35 36 36 37 37 35 34 34 34 34 33 33 32 32 32 32 33 32 32 32 31 30 31 30 30 29 28 28 27 27 27
Wind_Direction
309 308 305 305 309 304 303 307 308 309 309 310 316 313 311 311 309 309 308 305 305 304 303 305 305 305 305 304 303 302 302 300 299 298 295 294 292 292
301 300 301 304 304 304 301 302 302 303 307 309 310 313 312 310 311 313 312 310 310 307 306 305 305 306 305 304 304 304 303 302 301 301 298 295 294 293
295 295 297 302 303 301 297 300 303 303 303 305 305 306 308 310 310 310 310 308 306 306 307 305 304 305 305 305 304 303 302 302 301 300 298 296 294 293
292 291 294 297 298 298 297 297 300 301 301 302 301 302 305 309 310 307 306 305 304 304 305 304 303 303 304 304 303 303 302 300 299 299 298 296 295 294
291 288 291 294 293 295 295 296 297 298 300 302 301 301 302 304 306 307 306 304 304 303 303 301 301 302 304 304 303 303 302 301 300 299 297 296 295 294
294 291 290 288 289 291 294 294 297 297 297 300 301 300 300 300 302 305 304 302 305 304 303 303 303 303 304 304 304 303 302 302 301 299 297 295 294 293
293 294 292 289 289 291 292 293 296 296 295 295 296 298 298 298 301 303 303 305 305 304 303 303 303 303 304 303 303 303 302 301 301 300 297 295 294 294
292 293 292 290 289 289 289 291 293 293 294 295 295 296 298 298 301 304 304 303 302 302 303 303 303 303 304 304 302 302 301 300 300 298 297 295 294 294
291 291 293 293 291 289 288 291 291 292 292 293 294 294 295 298 301 301 301 302 302 302 302 303 304 304 305 305 304 304 303 302 300 298 297 295 293 293
293 293 292 292 292 291 291 293 293 294 295 295 296 294 296 298 299 301 302 302 303 303 302 303 304 305 305 305 305 304 303 303 301 300 300 297 294 292
294 294 294 293 291 290 290 291 293 294 295 297 297 298 300 301 302 304 305 304 303 303 304 304 304 304 304 305 305 303 302 302 301 300 300 298 296 294
295 296 295 294 293 291 290 292 294 295 296 298 300 301 301 301 302 303 304 304 304 303 304 305 306 306 305 305 305 304 304 303 302 301 301 300 298 296
296 296 296 295 293 291 291 292 293 293 295 296 298 301 302 301 301 301 302 304 306 305 306 306 305 307 306 307 305 304 303 303 303 302 302 300 298 297
296 296 296 295 293 293 293 294 294 293 293 294 295 297 299 299 300 300 302 304 305 305 306 306 305 306 306 307 306 304 303 302 301 301 302 301 299 297
296 296 296 296 295 295 295 295 295 295 295 294 293 293 295 297 298 299 300 302 303 303 305 305 304 305 306 306 306 304 302 301 300 300 299 299 298 296
293 292 293 294 295 294 294 296 297 297 296 296 295 294 294 295 296 298 298 298 300 302 303 304 303 304 306 305 304 303 303 302 300 299 298 299 299 297
291 289 289 293 294 294 294 294 295 295 295 296 296 295 294 294 295 296 297 297 298 300 302 303 301 303 306 306 305 304 303 303 302 300 299 299 301 300
289 290 292 291 292 293 293 294 294 294 294 295 295 295 295 294 294 294 296 298 298 299 300 301 301 304 305 306 306 305 304 304 303 302 301 300 300 299
287 288 290 292 291 292 292 292 292 293 293 294 294 295 295 294 294 294 295 297 298 299 301 300 300 302 303 304 305 305 305 305 305 305 304 302 300 299
285 286 288 289 290 291 292 292 292 291 292 293 293 295 295 293 292 294 295 294 296 298 299 298 298 300 301 302 303 304 304 305 306 306 306 304 302 300
285 285 287 288 289 290 290 291 293 293 292 292 292 294 293 292 293 293 293 291 293 296 297 298 298 299 300 301 301 301 303 304 305 304 304 304 302 301
283 284 285 286 288 288 288 288 290 292 292 292 291 290 291 291 292 291 290 291 293 294 295 297 298 299 300 300 299 300 301 303 303 303 304 304 304 303
282 283 284 285 286 287 288 289 290 291 292 292 290 289 289 289 290 291 290 292 293 294 295 296 297 298 299 299 298 299 301 301 302 303 304 305 306 305
Height
5875 5874 5873 5873 5872 5871 5870 5869 5869 5868 5867 5866 5864 5863 5862 5861 5859 5858 5857 5856 5854 5853 5852 5850 5849 5847 5846 5844 5842 5841 5839 5837 5835 5833 5831 5829 5827 5826
5873 5872 5872 5871 5870 5869 5869 5868 5867 5866 5865 5863 5862 5861 5860 5858 5857 5855 5854 5852 5851 5850 5848 5847 5845 5843 5841 5840 5838 5836 5834 5832 5830 5828 5825 5823 5822 5820
5871 5870 5870 5869 5868 5867 5866 5865 5864 5863 5862 5861 5860 5858 5857 5856 5854 5853 5851 5849 5848 5846 5844 5843 5841 5839 5837 5835 5833 5831 5829 5827 5824 5822 5820 5818 5816 5814
5869 5868 5867 5867 5866 5865 5864 5863 5862 5861 5860 5858 5857 5856 5854 5853 5851 5849 5848 5846 5844 5842 5840 5838 5836 5834 5832 5830 5828 5826 5823 5821 5818 5816 5814 5812 5810 5808
5867 5866 5865 5864 5863 5862 5861 5860 5859 5858 5857 5855 5854 5852 5851 5850 5848 5846 5844 5842 5840 5838 5836 5834 5832 5829 5827 5825 5823 5820 5818 5815 5812 5810 5807 5805 5803 5801
5864 5863 5862 5861 5860 5859 5858 5857 5855 5854 5853 5852 5850 5848 5847 5845 5844 5842 5839 5837 5835 5833 5831 5829 5826 5824 5822 5819 5816 5814 5811 5808 5806 5803 5801 5798 5797 5795
5861 5859 5858 5857 5856 5855 5854 5853 5851 5850 5849 5848 5846 5844 5842 5841 5839 5837 5834 5832 5830 5828 5825 5823 5820 5818 5815 5812 5810 5807 5804 5801 5799 5796 5793 5791 5789 5787
5857 5856 5854 5853 5852 5851 5850 5848 5847 5846 5845 5843 5841 5839 5838 5836 5834 5831 5829 5827 5825 5823 5820 5817 5814 5811 5808 5806 5803 5800 5797 5794 5791 5788 5786 5783 5781 5779
5852 5851 5850 5849 5847 5846 5845 5843 5842 5840 5839 5838 5836 5834 5832 5830 5828 5825 5823 5820 5818 5816 5814 5811 5807 5805 5802 5798 5795 5792 5789 5786 5784 5781 5778 5775 5773 5771
5848 5846 5845 5844 5842 5841 5839 5838 5837 5835 5834 5832 5831 5829 5827 5824 5822 5820 5817 5815 5812 5809 5807 5804 5801 5798 5795 5791 5788 5785 5782 5779 5776 5773 5770 5767 5765 5763
5843 5841 5840 5838 5837 5835 5834 5833 5831 5830 5828 5826 5825 5823 5820 5818 5816 5814 5811 5809 5806 5803 5800 5797 5794 5791 5788 5785 5781 5778 5774 5771 5768 5765 5762 5760 5757 5755
5837 5836 5834 5833 5831 5829 5828 5827 5826 5824 5822 5820 5819 5816 5814 5812 5810 5808 5805 5802 5799 5797 5793 5790 5787 5784 5782 5778 5774 5770 5767 5764 5761 5758 5755 5752 5749 5747
5832 5830 5829 5827 5825 5824 5822 5821 5820 5818 5816 5814 5812 5810 5808 5806 5803 5801 5798 5796 5793 5790 5787 5784 5780 5777 5774 5771 5767 5763 5760 5756 5753 5750 5747 5744 5742 5739
5827 5825 5823 5821 5819 5817 5816 5815 5813 5811 5810 5808 5806 5804 5801 5799 5796 5794 5791 5789 5786 5783 5780 5776 5773 5770 5766 5763 5760 5756 5752 5749 5746 5743 5740 5737 5734 5732
5820 5819 5817 5815 5813 5811 5810 5808 5807 5805 5803 5801 5799 5797 5794 5792 5789 5787 5784 5781 5778 5775 5772 5769 5766 5762 5759 5755 5752 5749 5745 5742 5739 5736 5733 5730 5727 5724
5814 5812 5810 5808 5807 5805 5803 5802 5800 5798 5796 5794 5792 5789 5787 5784 5782 5779 5776 5774 5771 5768 5764 5761 5758 5755 5751 5748 5744 5741 5738 5735 5732 5728 5725 5722 5719 5716
5806 5805 5803 5802 5800 5798 5796 5794 5792 5790 5788 5786 5784 5781 5779 5776 5774 5771 5768 5765 5763 5759 5756 5753 5749 5746 5743 5740 5736 5733 5730 5727 5724 5721 5718 5715 5711 5708
5798 5797 5795 5793 5792 5790 5788 5786 5784 5782 5780 5777 5775 5773 5770 5768 5765 5762 5759 5757 5754 5751 5748 5745 5741 5738 5736 5732 5729 5725 5722 5719 5716 5712 5709 5707 5704 5700
5790 5789 5787 5785 5783 5781 5779 5777 5775 5773 5771 5768 5766 5764 5761 5759 5756 5753 5751 5748 5745 5742 5740 5736 5733 5730 5727 5724 5721 5718 5715 5711 5708 5705 5701 5698 5695 5692
5781 5780 5778 5776 5774 5772 5770 5768 5765 5763 5761 5759 5757 5754 5752 5749 5747 5745 5742 5740 5737 5734 5731 5728 5725 5722 5719 5717 5714 5710 5707 5703 5700 5697 5694 5690 5687 5684
5771 5770 5768 5766 5764 5762 5760 5758 5756 5754 5752 5750 5747 5745 5742 5740 5738 5736 5733 5730 5728 5725 5723 5720 5717 5714 5711 5708 5706 5703 5699 5695 5692 5689 5686 5683 5679 5676
5760 5759 5757 5756 5754 5752 5750 5748 5746 5744 5742 5740 5737 5735 5733 5731 5729 5726 5724 5721 5719 5716 5713 5711 5708 5705 5702 5699 5697 5694 5691 5687 5684 5680 5677 5675 5671 5668
5749 5748 5747 5745 5743 5741 5740 5738 5736 5734 5732 5729 5727 5725 5723 5721 5719 5717 5715 5712 5709 5707 5704 5702 5699 5696 5693 5691 5688 5685 5682 5679 5676 5673 5670 5666 5664 5661